C/2020 Q1 ( Borisov )

Japanese version
Home page
Updated on September 6, 2020

---------------------------------------------------------------------

* Profile

Discovery Date August 17, 2020
Magnitude 17.8 mag
Discoverer Gennady Borisov (MARGO observatory near Nauchnij, Crimea)

* Pictures

* Orbital Elements

Epoch 2020 Aug. 19.0 TT = JDT 2459080.5
T 2020 Aug. 15.19862 TT                                 Rudenko
q   1.3180269            (2000.0)            P               Q
z  +0.0035987      Peri.   10.38727     +0.71294615     +0.51287097
 +/-0.0037594      Node    52.49786     +0.59235134     -0.80544887
e   0.9952569      Incl.  142.93147     +0.37527013     +0.29701094
From 106 observations 2020 Aug. 17-31, mean residual 0".7.

* Finding Charts

* Magnitudes Graph

        m1 = 12.0 + 5 log d + 10.0 log r

---------------------------------------------------------------------

The orbital elements are published on M.P.E.C. 2020-R04.
The charts are made with StellaNavigator Ver.10 (AstroArts).
The magnitudes graphs are made with Comet for Windows.

---------------------------------------------------------------------

Copyright(C) Seiichi Yoshida (comet@aerith.net). All rights reserved.